Pluckemin, NJ

12:32 AM EDT on August 29, 2016 (GMT -0400)
Somerset

Weather History for KSMQ - January, 2014

Change the Weather History Date:

Saturday, January 25, 2014

  Actual Average Record
Temperature  
Mean Temperature 16 °F -  
Max Temperature 24 °F 40 °F 61 °F (1989)
Min Temperature 6 °F 20 °F -10 °F (1935)
Degree Days  
Heating Degree Days 50    
Moisture  
Dew Point 13 °F    
Average Humidity 77    
Maximum Humidity 92    
Minimum Humidity 46    
Precipitation  
Precipitation 0.00 in - - ()
Sea Level Pressure  
Sea Level Pressure 29.59 in    
Wind  
Wind Speed 5 mph (SSW)    
Max Wind Speed 12 mph    
Max Gust Speed 18 mph    
Visibility 5 miles    
Events Fog , Snow    
Averages and records for this station are not official NWS values.
T = Trace of Precipitation, MM = Missing Value Source: NWS Daily Summary

Daily Weather History Graph

Daily Weather History Graph

Search for Another Location

Airport or City:

Trip Planner

Search our weather history database for the weather conditions in past years. The results will help you decide how hot, cold, wet, or windy it might be!

Date:

Astronomy

Jan. 25, 2014 Rise Set
Actual Time 7:14 AM EST 5:08 PM EST
Civil Twilight 6:45 AM EST 5:37 PM EST
Nautical Twilight 6:11 AM EST 6:10 PM EST
Astronomical Twilight 5:39 AM EST 6:42 PM EST
Moon 1:43 AM EST (1/25) 12:06 PM EST (1/25)
Length of Visible Light 10h 52m
Length of Day
9h 53m
Waning Crescent, 34% of the Moon is Illuminated
Jan 25
Waning Crescent
Jan 30
New
Feb 6
First Quarter
Feb 14
Full
Feb 22
Last Quarter

Hourly Weather History & Observations

Time (EST) Temp. Windchill Dew Point Humidity Pressure Visibility Wind Dir Wind Speed Gust Speed Precip Events Conditions
12:53 AM 14.0 °F 6.5 °F 1.0 °F 56% 30.03 in 10.0 mi SSE 4.6 mph - N/A   Clear
1:53 AM 15.1 °F 6.4 °F 1.9 °F 56% 30.00 in 10.0 mi South 5.8 mph - N/A   Clear
2:53 AM 15.1 °F 6.4 °F 1.0 °F 54% 29.98 in 10.0 mi SSE 5.8 mph - N/A   Clear
3:53 AM 12.9 °F 5.2 °F 1.0 °F 59% 29.92 in 10.0 mi SSE 4.6 mph - N/A   Clear
4:53 AM 9.0 °F 2.4 °F 1.0 °F 70% 29.89 in 10.0 mi SE 3.5 mph - N/A   Clear
5:53 AM 8.1 °F - 1.0 °F 73% 29.84 in 10.0 mi Calm Calm - N/A   Clear
6:53 AM 7.0 °F - 1.9 °F 80% 29.82 in 10.0 mi Calm Calm - N/A   Clear
7:53 AM 7.0 °F - 1.0 °F 77% 29.78 in 10.0 mi Calm Calm - N/A   Clear
8:53 AM 17.1 °F - 5.0 °F 59% 29.75 in 10.0 mi Calm Calm - N/A   Partly Cloudy
9:53 AM 23.0 °F 13.9 °F 5.0 °F 46% 29.72 in 10.0 mi SW 8.1 mph - N/A   Mostly Cloudy
10:53 AM 24.1 °F 13.7 °F 6.1 °F 46% 29.68 in 10.0 mi SSW 10.4 mph 17.3 mph N/A   Overcast
11:32 AM 24.1 °F 13.1 °F 10.9 °F 57% 29.64 in 2.5 mi SW 11.5 mph 18.4 mph 0.00 in Snow Light Snow
11:42 AM 21.9 °F 11.7 °F 14.0 °F 72% 29.63 in 1.0 mi SSW 9.2 mph - 0.00 in Snow Light Snow
11:51 AM 21.2 °F 11.7 °F 15.8 °F 80% 29.62 in 0.5 mi SSW 8.1 mph 17.3 mph 0.00 in Snow Snow
11:53 AM 21.9 °F 12.5 °F 17.1 °F 82% 29.62 in 0.5 mi SSW 8.1 mph 17.3 mph 0.00 in Snow Snow
12:00 PM 21.9 °F 12.5 °F 17.1 °F 82% 29.60 in 0.5 mi SSW 8.1 mph - 0.00 in Snow Snow
12:22 PM 21.9 °F 14.5 °F 18.0 °F 85% 29.58 in 0.8 mi SSW 5.8 mph - 0.00 in Snow Light Snow
12:53 PM 21.9 °F 14.5 °F 18.0 °F 85% 29.57 in 0.5 mi South 5.8 mph - 0.00 in Fog , Snow Snow
1:04 PM 21.9 °F 14.5 °F 19.0 °F 89% 29.55 in 1.0 mi South 5.8 mph - 0.00 in Snow Light Snow
1:51 PM 23.0 °F 15.8 °F 17.6 °F 80% 29.51 in 3.0 mi Variable 5.8 mph - 0.00 in Snow Light Snow
1:52 PM 23.0 °F 15.8 °F 18.0 °F 81% 29.52 in 3.0 mi SSW 5.8 mph - 0.00 in Snow Light Snow
2:26 PM 24.1 °F 15.2 °F 18.0 °F 77% 29.49 in 1.8 mi SSW 8.1 mph - 0.00 in Snow Light Snow
2:53 PM 23.0 °F - 19.9 °F 88% 29.48 in 0.8 mi Calm Calm - 0.00 in Snow Light Snow
3:49 PM 24.8 °F 17.9 °F 19.4 °F 80% 29.45 in 1.0 mi Variable 5.8 mph - 0.00 in Snow Light Snow
3:53 PM 23.0 °F 14.7 °F 19.0 °F 85% 29.46 in 1.0 mi Variable 6.9 mph - 0.00 in Snow Light Snow
4:01 PM 23.0 °F 14.7 °F 19.0 °F 85% 29.45 in 0.8 mi Variable 6.9 mph - 0.00 in Snow Light Snow
4:28 PM 23.0 °F 15.8 °F 19.0 °F 85% 29.46 in 1.0 mi Variable 5.8 mph - 0.00 in Snow Light Snow
4:40 PM 23.0 °F 17.0 °F 18.0 °F 81% 29.45 in 2.0 mi Variable 4.6 mph - 0.00 in Snow Light Snow
4:51 PM 23.0 °F 17.0 °F 17.6 °F 80% 29.45 in 3.0 mi SW 4.6 mph - 0.00 in Snow Light Snow
4:53 PM 23.0 °F 15.8 °F 18.0 °F 81% 29.46 in 3.0 mi SW 5.8 mph - 0.00 in Snow Light Snow
5:01 PM 23.0 °F 14.7 °F 18.0 °F 81% 29.45 in 2.0 mi Variable 6.9 mph - 0.00 in Snow Light Snow
5:17 PM 23.0 °F 14.7 °F 18.0 °F 81% 29.45 in 1.2 mi SSW 6.9 mph - 0.00 in Snow Light Snow
5:30 PM 23.0 °F 14.7 °F 18.0 °F 81% 29.45 in 3.0 mi SSW 6.9 mph - 0.00 in Snow Light Snow
5:53 PM 23.0 °F 17.0 °F 18.0 °F 81% 29.46 in 10.0 mi Variable 4.6 mph - 0.00 in   Scattered Clouds
6:23 PM 23.0 °F 17.0 °F 18.0 °F 81% 29.46 in 10.0 mi Variable 4.6 mph - N/A   Overcast
6:53 PM 23.0 °F 17.0 °F 18.0 °F 81% 29.48 in 10.0 mi Variable 4.6 mph - N/A   Mostly Cloudy
7:01 PM 23.0 °F 18.4 °F 18.0 °F 81% 29.46 in 10.0 mi SW 3.5 mph - N/A   Mostly Cloudy
7:53 PM 19.9 °F - 16.0 °F 85% 29.47 in 10.0 mi Calm Calm - N/A   Scattered Clouds
8:53 PM 17.1 °F - 14.0 °F 88% 29.47 in 10.0 mi Calm Calm - N/A   Clear
9:53 PM 10.9 °F - 9.0 °F 92% 29.47 in 6.0 mi Calm Calm - N/A   Clear
10:53 PM 9.0 °F - 6.1 °F 88% 29.48 in 7.0 mi Calm Calm - N/A   Clear
11:53 PM 6.1 °F - 1.9 °F 83% 29.49 in 8.0 mi Calm Calm - N/A   Scattered Clouds